Volver al catálogo

THOR ABLESTAR DEB

ActivoLEO
NORAD 133·DEBRIS·🇺🇸 United States

Lanzado Jun 29, 1961 desde Cape Canaveral Space Force Station

Loading…

Próximos Pases (próximas 24 horas)

TLE

ActualizadoSource: Space-Track

Época: Sep 7, 2026, 14:48 UTC

1 00133U 61015T   26250.61716342  .00000297  00000-0  16519-3 0  9998
2 00133  67.1164  10.0710 0044429  70.9141 289.6760 14.23135036345219

Sigue THOR ABLESTAR DEB en tiempo real con AllMySat

Download on the App Store